THORAD AGENA D DEB, 4644

Orbit data source: Space-Track

THORAD AGENA D DEB, 4644 is space debris in SSO originally from a launch on Wed, 08 Apr 1970 UTC launched from the Air Force Western Test Range (AFWTR). Debris objects in space refer to the collection of defunct objects orbiting the Earth. Examples of debris include non-operational satellites, rocket bodies, and fragments generated from explosions, collisions, or faulty payload assembly.

Loading next visibility...
THORAD AGENA D DEB details
Identifier
4644, 1970-025AC
Orbit
SSO
Last TLE update16 hours ago
Origin
Flag of USGSFC (US)
ManufacturerUnknown
MissionSpacecraft
Bus & MotorUnknown
MassUnknown
Launch date (UTC)
1970-04-08 (55 years ago)
Launch vehicleUnknown
Launch site
Air Force Western Test Range (AFWTR)
Object type
Payload
Rocket body
Debris
Shape & HBRUnknown
Radar Cross SectionMedium (>0.1 m² and <1 m²)

Expand to show TLE details & history

TLE from 16 hours ago
0 THORAD AGENA D DEB
1 04644U 70025AC  25023.94353103  .00000562  00000-0  81076-3 0  9990
2 04644  99.6004 283.6695 0009765 151.8245 271.2072 13.60081176707941
Epoch: 2025-01-23T22:38Z
Definitive object data (Epoch: 2025-01-23T22:38:41.08Z)
Latitude61.48279°
Longitude162.44354°
Altitude1,045.689 km
Speed7.335 km/s
True Right ascension17h 42m 30s
True Declination61° 20' 38"
Sunlit
Object was in daylight at TLE epoch
Visualization TLE readout
Latitude48.2794°
Longitude12.02556°
Altitude1,036.02 km
Speed7.342 km/s
Apparent Right ascension05h 55m 04s
Apparent Declination9° 17' 31"
Sunlit
Object is in full shadow
Visualization observer readout
Local Sidereal Time16:08:17
Azimuth327.262° NNW
Elevation-34.934°
Doppler factor1
Orbital elements
Apogee altitude1,039.917 km
Perigee altitude1,025.443 km
Semi-major axis7,410.817 km
Eccentricity0.0009765
Inclination99.6004°
RAAN283.6695°
Arg. of periapsis151.8245°
True anomaly271.09532°
Mean anomaly271.2072°
Eccentric anomaly271.15126°
Mean motion3.40208 °/min
BSTAR0.00081076
Orbital period105.82 mins
Loading maneuver chart data...

THORAD AGENA D DEB Visibility forecast

Observer location: undefined°, undefined

Span
Click to sort rows by Start time (UTC) header in descending order
Start Az.
Max El. time (UTC)
Max El. Az.
Max El.
End time (UTC)
End Az.
11 mins2025-01-24 16:07:02.573Z126.917° SE2025-01-24 16:12:02.573Z74.241° E29.436°2025-01-24 16:18:02.573Z3.342° NNE
10 mins2025-01-24 17:52:02.573Z199.784° SSW2025-01-24 17:57:02.573Z267.337° W31.941°2025-01-24 18:02:02.573Z326.638° NNW
8 mins2025-01-25 04:59:02.573Z50.555° ENE2025-01-25 05:03:02.573Z99.778° ESE23.21°2025-01-25 05:07:02.573Z143.967° SSE
10 mins2025-01-25 06:43:02.573Z357.952° N2025-01-25 06:47:02.573Z299.692° NW37.583°2025-01-25 06:53:02.573Z218.715° SW
|